Weather History for Baltimore, MD

Change the Weather History Date:

Thursday, October 3, 2013

  Actual Average Record
Temperature  
Mean Temperature 72 °F 61 °F  
Max Temperature 83 °F 71 °F 92 °F (1919)
Min Temperature 60 °F 50 °F 34 °F (1974)
Degree Days  
Heating Degree Days 0 6  
Month to date heating degree days 0 16  
Since 1 July heating degree days 52 69  
Cooling Degree Days 7 1  
Month to date cooling degree days 17 4  
Year to date cooling degree days 1305 1149  
Growing Degree Days 21 (Base 50)    
Moisture  
Dew Point 61 °F    
Average Humidity 68    
Maximum Humidity 90    
Minimum Humidity 46    
Precipitation  
Precipitation 0.00 in 0.12 in 1.40 in (1927)
Month to date precipitation 0.00 0.34  
Year to date precipitation 27.22 32.22  
Snow  
Snow 0.00 in 0.00 in - ()
Month to date snowfall 0.0 0.0  
Since 1 July snowfall 0.0 0.0  
Snow Depth 0.00 in    
Sea Level Pressure  
Sea Level Pressure 30.07 in    
Wind  
Wind Speed 2 mph (SSW)    
Max Wind Speed 8 mph    
Max Gust Speed 14 mph    
Visibility 10 miles    
Events      
T = Trace of Precipitation, MM = Missing Value Source: NWS Daily Summary

Daily Weather History Graph

Daily Weather History Graph

Search for Another Location

Airport:

Trip Planner

Search our weather history database for the weather conditions in past years. The results will help you decide how hot, cold, wet, or windy it might be!

Date:

Astronomy

Oct. 03, 2013 Rise Set
Actual Time 7:04 AM EDT 6:45 PM EDT
Civil Twilight 6:38 AM EDT 7:12 PM EDT
Nautical Twilight 6:07 AM EDT 7:43 PM EDT
Astronomical Twilight 5:35 AM EDT 8:14 PM EDT
Moon 5:36 AM EDT (10/3) 5:53 PM EDT (10/3)
Length of Visible Light 12h 34m
Length of Day
11h 40m
Waning Crescent, 2% of the Moon is Illuminated
Oct 3
Waning Crescent
Oct 4
New
Oct 11
First Quarter
Oct 18
Full
Oct 26
Last Quarter

Hourly Weather History & Observations

Time (EDT) Temp. Heat Index Dew Point Humidity Pressure Visibility Wind Dir Wind Speed Gust Speed Precip Events Conditions
12:54 AM 64.0 °F - 59.0 °F 84% 30.06 in 10.0 mi West 3.5 mph - N/A   Clear
1:54 AM 64.0 °F - 59.0 °F 84% 30.06 in 9.0 mi West 3.5 mph - N/A   Clear
2:54 AM 63.0 °F - 59.0 °F 87% 30.06 in 10.0 mi West 3.5 mph - N/A   Partly Cloudy
3:54 AM 63.0 °F - 57.9 °F 84% 30.06 in 10.0 mi West 3.5 mph - N/A   Partly Cloudy
4:54 AM 62.1 °F - 57.9 °F 86% 30.07 in 10.0 mi Calm Calm - N/A   Clear
5:54 AM 61.0 °F - 57.9 °F 90% 30.07 in 10.0 mi Calm Calm - N/A   Scattered Clouds
6:54 AM 61.0 °F - 57.9 °F 90% 30.09 in 10.0 mi Calm Calm - N/A   Mostly Cloudy
7:54 AM 62.1 °F - 59.0 °F 90% 30.11 in 10.0 mi Calm Calm - N/A   Mostly Cloudy
8:54 AM 69.1 °F - 60.1 °F 73% 30.12 in 9.0 mi Calm Calm - N/A   Mostly Cloudy
9:54 AM 73.0 °F - 60.1 °F 64% 30.11 in 9.0 mi East 4.6 mph - N/A   Mostly Cloudy
10:54 AM 75.9 °F - 60.1 °F 58% 30.12 in 9.0 mi ENE 3.5 mph - N/A   Mostly Cloudy
11:54 AM 77.0 °F - 60.1 °F 56% 30.11 in 10.0 mi Calm Calm - N/A   Mostly Cloudy
12:54 PM 81.0 °F 81.7 °F 61.0 °F 50% 30.10 in 10.0 mi Calm Calm - N/A   Mostly Cloudy
1:54 PM 81.0 °F 81.7 °F 61.0 °F 50% 30.07 in 10.0 mi South 4.6 mph - N/A   Mostly Cloudy
2:54 PM 82.0 °F 82.7 °F 61.0 °F 49% 30.05 in 10.0 mi Calm Calm - N/A   Mostly Cloudy
3:54 PM 82.0 °F 82.1 °F 59.0 °F 45% 30.04 in 10.0 mi SW 4.6 mph - N/A   Overcast
4:54 PM 82.0 °F 82.4 °F 60.1 °F 47% 30.04 in 10.0 mi South 5.8 mph - N/A   Mostly Cloudy
5:54 PM 79.0 °F - 64.9 °F 62% 30.04 in 10.0 mi SSE 3.5 mph - N/A   Mostly Cloudy
6:54 PM 75.9 °F - 64.9 °F 69% 30.05 in 10.0 mi SSE 3.5 mph - N/A   Mostly Cloudy
7:54 PM 73.9 °F - 64.9 °F 73% 30.05 in 10.0 mi South 4.6 mph - N/A   Mostly Cloudy
8:54 PM 73.9 °F - 64.0 °F 71% 30.06 in 10.0 mi South 3.5 mph - N/A   Mostly Cloudy
9:54 PM 71.1 °F - 64.0 °F 78% 30.06 in 9.0 mi Calm Calm - N/A   Overcast
10:54 PM 71.1 °F - 64.0 °F 78% 30.08 in 9.0 mi Calm Calm - N/A   Mostly Cloudy